THORAD AGENA D DEB

Satellite information

Favourite Embed

Satellite Type and Status

DEBRISIN ORBIT

Key statistics

Satellite THORAD AGENA D DEB at a glance.

Uptime

20180

Days in orbit

Revolutions

≈ 14.3

Per day

Orbit

SSO

Sun Synchronous Orbit

Inclination

100.0

Latest

Satellite identification and parameters

Extended collection of information and parameters for THORAD AGENA D DEB.

Object identification

Identified? True

Debris? True

Object name: THORAD AGENA D DEB

International designator: 1970-025FH

Object number (NORAD): 4911

Object ID (CCSDS): 4911

Country: UNITED STATES OF AMERICA (US)

Current information (Y/N): Y

RCS size: SMALL

Orbital parameters

Period: 100.679 minutes

Inclination: 99.9932 deg

SMA: 7168.916 km

Apoapsis: 834.485 km

Periapsis: 747.078 km

RAAN: 12.1664 deg

Eccentricy: 0.0060963

Argument of periapsis: 209.4693 deg

Mean anomaly: 150.3043 deg

Mean motion: 14.30284655 rev/day

Mean motion (dot): 0.00001798 rev/day2

B* drag term: 0.00070043 1/REarth

Two-line elements (TLE)

Creation date: July 6, 2025, 6:05 p.m.

Reference frame: TEME

Reference center: EARTH

Epoch: July 6, 2025, 11:33 a.m. UTC

TLE line 0: 0 THORAD AGENA D DEB

TLE line 1: 1 04911U 70025FH 25187.48152229 .00001798 00000-0 70043-3 0 9997

TLE line 2: 2 04911 99.9932 12.1664 0060963 209.4693 150.3043 14.30284655822146

Live tracking on map

Real-time ground track for satellite THORAD AGENA D DEB.

In-orbit conjunctions

A list of the most updated potential collisions computed for object THORAD AGENA D DEB.

Target Orbit TCA Probability of collision Miss distance Type
DELTA 1 DEB SSO 2024-11-14 17:51:28 0.000344517 547.0 (m) DEBRIS
SL-16 R/B LEO 2024-06-30 17:02:09 0.0001692295 86.0 (m) ROCKET BODY

Associated space launch

Meteorological research and development satellite

THORAD AGENA D DEB was lifted into orbit during the mission ‘Thorad SLV-2G Agena D | Nimbus 4’, on board a Thorad SLV-2G Agena D space rocket.

The launch took place on April 8, 1970, 8:17 a.m. from Space Launch Complex 2E.

For more information about the launch, click the button.

Launch to space Thorad SLV-2G Agena D | Nimbus 4
Thorad SLV-2G Agena D | Nimbus 4

Agency: N/A

Status: Launch Successful

Launch date: April 8, 1970, 8:17 a.m. UTC

Rocket: Thorad SLV-2G Agena D

Launch pad: Space Launch Complex 2E

Location: Vandenberg SFB, CA, USA

...

Latest news about this satellite

There are no fresh news available about this satellite. Check back as we update our databases every day.


Newsletter sign-up

Weekly statistics, charts and insights to help you stay on top of the space industry.